Last updated on Oct. 10, 2020, 5:53 a.m. UTC
1 44830U 19084G 20283.37625441 .14504533 23319-5 28099-3 0 9997 2 44830 96.9282 155.2233 0011473 239.9810 120.0357 16.46538413 48546
Satellite is not in orbit.